Regional Weather Roundup
Issued by NWS Albany, NY

Home | Current Version | Previous Version | Text Only | Print | Product List | Glossary On
Versions: 1 2 3 4 5 6 7 8 9 10 11 12 13 14 15 16 17 18 19 20 21 22 23 24 25 26 27 28 29 30 31 32 33 34 35 36 37 38 39 40 41 42 43 44 45 46 47 48 49 50
000
ASUS41 KALY 012210
RWRALY

NEW YORK STATE HOURLY WEATHER ROUNDUP
NATIONAL WEATHER SERVICE ALBANY NY
600 PM EDT FRI AUG 01 2014

NOTE: "FAIR" INDICATES FEW OR NO CLOUDS BELOW 12,000 FEET WITH NO
SIGNIFICANT WEATHER AND/OR NO OBSTRUCTIONS TO VISIBILITY.

NYZ032-033-038>043-046>054-057>066-NYZ062>081-012300-
EAST


CITY           SKY/WX    TMP DP  RH WIND       PRES   REMARKS
ALBANY         CLOUDY    81  65  58 S12       30.14S
GLENS FALLS    PTSUNNY   80  64  58 S6        30.14S
POUGHKEEPSIE   CLOUDY    70  66  87 S3        30.19F
NEWBURGH       PTSUNNY   73  66  78 SE6       30.21
MONTGOMERY     CLOUDY    73  63  70 SE5       30.20S
WHITE PLAINS   CLOUDY    74  68  81 S9        30.20F
ISLIP          CLOUDY    77  64  64 S7        30.21S
NEW YORK CITY  CLOUDY    78  66  66 S10       30.19F
CENTRAL PARK   CLOUDY    76  66  71 VRB3      30.23F
$$

NYZ005>009-017-018-044>046-055-056-012300-
CENTRAL


CITY           SKY/WX    TMP DP  RH WIND       PRES   REMARKS
FULTON         PTSUNNY   79  68  69 CALM      30.11S
SYRACUSE       CLOUDY    84  57  39 SE6       30.11R
ROME           MOSUNNY   82  60  47 VRB3      30.13S
ELMIRA         PTSUNNY   84  59  42 S7        30.11F
BINGHAMTON     PTSUNNY   78  60  53 S5        30.16F
MONTICELLO     CLOUDY    66  64  94 E3        30.24R THUNDER
$$

NYZ026>034-041>043-012300-
NORTH


CITY           SKY/WX    TMP DP  RH WIND       PRES   REMARKS
WATERTOWN      SUNNY     79  60  52 W5        30.12S
FORT DRUM      NOT AVBL
MASSENA        SUNNY     79  62  56 S9        30.10S
SARANAC LAKE   MOSUNNY   74  57  55 SW8       30.16R
PLATTSBURGH    LGT RAIN  77  65  66 S5        30.10S
$$

NYZ001>004-010>016-019>021-012300-
WEST


CITY           SKY/WX    TMP DP  RH WIND       PRES   REMARKS
NIAGARA FALLS  MOSUNNY   79  58  48 SW7       30.09S
BUFFALO        MOSUNNY   79  56  45 SW8       30.10S
DUNKIRK        SUNNY     78  62  57 NW10      30.11R
JAMESTOWN      MOSUNNY   77  55  47 W3        30.13F
WELLSVILLE     SUNNY     78  55  44 S8        30.18S
ROCHESTER      PTSUNNY   73  60  63 NE7       30.12R THUNDER
PENN YAN       MOSUNNY   82  58  43 S6        30.12S
$$

             KEY
       WCI = WIND CHILL INDEX
       VSB = VISIBILITY
       HX  = HEAT INDEX
$$


USA.gov is the U.S. government's official web portal to all federal, state and local government web resources and services.